#timestamp,LO_Frequency,Hit,StdDev 
1576548015.1,286046996.6,N
1576548035.9,286046999.3,N
1576548055.7,286047001.2,N
1576548075.5,286046998.3,N
1576548095.4,286046998.6,N
1576548115.2,286046998.3,N
1576548135.1,286047001.1,N
1576548136.0,286047001.1,N
1576548155.8,286046999.4,N
1576548175.6,286047000.4,N
1576548195.5,286047001.0,N
1576548215.3,286046999.3,N
1576548235.1,286047000.5,N
1576548255.9,286046998.7,N
1576548275.7,286047000.1,N
1576548295.6,286046999.8,N
1576548315.4,286046999.9,N
1576548335.2,286047000.1,N
1576548355.1,286047002.1,N
1576548356.0,286047002.1,N
1576548375.8,286047002.3,N
1576548395.6,286046999.8,N
1576548415.5,286047001.5,N
1576548435.3,286047003.1,N
1576548455.2,286047003.8,N
1576548475.9,286047001.3,N
1576548495.7,286047002.0,N
1576548515.6,286047001.4,N
1576548535.4,286047001.6,N
1576548555.2,286047004.2,N
1576548575.1,286047001.7,N
1576548576.0,286047001.7,N
1576548595.8,286046999.8,N
1576548615.7,286046999.8,N
1576548635.5,286047002.2,N
1576548655.3,286047003.9,N
1576548675.2,286047002.2,N
1576548695.0,286047001.9,N
1576548695.9,286047001.9,N
1576548715.7,286046999.8,N
1576548735.6,286046999.7,N
1576548755.4,286047001.5,N
1576548775.3,286047001.5,N
1576548795.1,286046999.9,N
1576548796.0,286046999.9,N
1576548815.8,286047000.9,N
1576548835.7,286047003.0,N
1576548855.5,286047004.4,Y
1576548875.3,286047000.2,P
1576548895.2,286047000.0,N
1576548915.0,286046998.1,N
1576548915.9,286046998.1,N
1576548935.8,286046998.5,N
1576548955.6,286046998.8,N
1576548975.4,286047000.7,N
1576548995.3,286046996.5,N
1576549015.1,286046999.3,N
1576549035.8,286046998.3,N
1576549055.7,286046999.1,N
1576549075.5,286046998.4,N
1576549095.4,286046998.3,N
1576549115.2,286046998.6,N
1576549135.0,286046998.2,N
1576549135.9,286046998.2,N
1576549155.8,286046998.7,N
1576549175.6,286046999.0,N
1576549195.4,286046998.6,N
1576549215.3,286046999.2,N
1576549235.1,286046999.1,N
1576549255.9,286046996.6,Y
1576549275.7,286046999.5,P
1576549295.5,286046999.2,N
1576549315.4,286047001.0,P
1576549335.2,286046998.3,N
1576549355.0,286047000.8,N
1576549355.9,286047000.8,N
1576549375.8,286047000.9,N
1576549395.6,286046999.0,N
1576549415.5,286046998.3,N
1576549435.3,286046998.7,N
1576549455.1,286046998.9,N
1576549475.9,286046997.1,N
1576549495.7,286047000.3,N
1576549515.5,286046998.1,N
1576549535.4,286046998.7,N
1576549555.2,286046999.0,N
1576549575.1,286046997.0,N
1576549576.0,286046997.0,N
1576549595.8,286046996.9,N
1576549615.6,286046996.8,N
1576549635.5,286046997.3,N
1576549655.3,286046995.5,Y
1576549675.1,286046999.5,P
1576549695.9,286046999.1,N
1576549715.7,286046997.0,P
1576549735.6,286046995.3,Y
1576549755.4,286047000.4,P
1576549775.2,286047000.1,N
1576549795.1,286047000.8,N
1576549796.0,286047000.8,N
1576549815.8,286046998.6,N
1576549835.7,286047000.4,N
1576549855.5,286046999.7,N
1576549875.3,286047001.8,N
1576549895.2,286047003.5,Y
1576549915.9,286047003.9,P
1576549935.7,286047004.3,N
1576549955.6,286047002.0,N
1576549975.4,286047000.3,N
1576549995.2,286047001.7,N
1576550015.1,286047001.7,N
1576550016.0,286047001.7,N
1576550035.8,286047002.7,N
1576550055.7,286047002.5,N
1576550075.5,286047002.7,N
1576550095.3,286047002.4,N
1576550115.2,286047002.1,N
1576550135.0,286047001.9,N
1576550135.9,286047001.9,N
1576550155.7,286046999.7,N
1576550175.6,286046999.8,N
1576550195.4,286047000.3,N
1576550215.3,286047001.8,N
1576550235.1,286047001.3,N
1576550236.0,286047001.3,N
1576550255.8,286047004.1,Y
1576550275.7,286047000.2,P
1576550295.5,286047000.3,N
1576550315.4,286047000.4,N
1576550335.2,286047001.9,Y
1576550355.0,286047004.2,P
1576550355.9,286047004.2,N
1576550375.8,286047001.8,N
1576550395.6,286047004.4,N
1576550415.4,286047002.2,N
1576550435.3,286047002.2,N
1576550455.1,286046999.7,N
1576550475.9,286046998.1,N
1576550495.7,286046998.2,N
1576550515.5,286047000.4,N
1576550535.4,286047002.3,N
1576550555.2,286047000.9,N
1576550575.0,286047000.4,N
1576550575.9,286047000.4,N
1576550595.8,286047002.4,N
1576550615.6,286046999.9,N
1576550635.5,286047000.2,N
1576550655.3,286047000.2,N
1576550675.1,286047004.2,N
1576550695.9,286047003.5,N
1576550715.7,286047001.4,N
1576550735.5,286047001.7,N
1576550755.4,286047001.6,N
1576550775.2,286047002.7,N
1576550795.1,286047002.0,N
1576550796.0,286047002.0,N
1576550815.8,286047000.0,N
1576550835.6,286046998.2,N
1576550855.5,286047000.9,N
1576550875.3,286047001.2,N
1576550895.1,286046999.5,N
1576550915.9,286046999.2,N
1576550935.7,286046999.1,N
1576550955.6,286046998.1,N
1576550975.4,286047000.9,N
1576550995.2,286047000.6,N
1576551015.1,286047000.0,N
1576551016.0,286047000.0,N
1576551035.8,286047001.6,N
1576551055.6,286047002.4,N
1576551075.5,286047004.1,N
1576551095.3,286047003.3,N
1576551115.2,286047001.3,N
1576551135.9,286047002.5,N
1576551155.7,286047002.5,N
1576551175.6,286047001.4,N
1576551195.4,286047001.7,N
1576551215.2,286047001.3,N
1576551235.1,286046999.7,N
1576551236.0,286046999.7,N
1576551255.8,286047001.0,N
1576551275.7,286047000.3,N
1576551295.5,286047001.2,N
1576551315.3,286046999.9,N
1576551335.2,286047000.7,N
1576551355.9,286046998.6,N
1576551375.7,286046998.6,N
1576551395.6,286046998.3,N
1576551415.4,286047000.9,N
1576551435.3,286046999.1,N
1576551455.1,286046999.1,N
1576551456.0,286046999.1,N
1576551475.8,286046999.5,N
1576551495.7,286046999.2,N
1576551515.5,286046998.0,N
1576551535.3,286046999.2,N
1576551555.2,286046998.5,N
1576551575.0,286046998.9,N
1576551575.9,286046998.9,N
1576551595.8,286046999.6,N
